Jerez de la Frontera, Spain

12:34 PM CET on November 23, 2017 (GMT +0100)
Jerez

Weather History for LEJR - May, 2013

Change the Weather History Date:

Tuesday, May 21, 2013

  Actual Average Record
Temperature  
Mean Temperature 64 °F -  
Max Temperature 77 °F 82 °F 87 °F (2003)
Min Temperature 50 °F 57 °F 50 °F (1999)
Degree Days  
Heating Degree Days 2    
Growing Degree Days 14 (Base 50)    
Moisture  
Dew Point 48 °F    
Average Humidity 61    
Maximum Humidity 94    
Minimum Humidity 25    
Precipitation  
Precipitation 0.00 in 0.03 in - ()
Sea Level Pressure  
Sea Level Pressure 30.03 in    
Wind  
Wind Speed 3 mph ()    
Max Wind Speed 15 mph    
Max Gust Speed -    
Visibility 7.2 miles    
Events      
Averages and records for this station are not official NWS values.
T = Trace of Precipitation, MM = Missing Value Source: Averaged Metar Reports

Daily Weather History Graph

Daily Weather History Graph

Search for Another Location

Airport or City:

Trip Planner

Search our weather history database for the weather conditions in past years. The results will help you decide how hot, cold, wet, or windy it might be!

Date:

Astronomy

May. 21, 2013 Rise Set
Actual Time 7:12 AM CEST 9:29 PM CEST
Civil Twilight 6:43 AM CEST 9:59 PM CEST
Nautical Twilight 6:07 AM CEST 10:35 PM CEST
Astronomical Twilight 5:27 AM CEST 11:14 PM CEST
Moon 5:33 PM CEST (5/21) 4:25 AM CEST (5/21)
Length of Visible Light 15h 16m
Length of Day
14h 17m
Waxing Gibbous, 81% of the Moon is Illuminated
May 21
Waxing Gibbous
May 25
Full
May 31
Last Quarter
Jun 8
New
Jun 16
First Quarter

Hourly Weather History & Observations

Time (CEST) Temp. Dew Point Humidity Pressure Visibility Wind Dir Wind Speed Gust Speed Precip Events Conditions
2:00 AM 57 °F 50 °F 70% 30.03 in 12 mi Calm Calm - -   Partly Cloudy
5:00 AM 55.4 °F 50.0 °F 82% 29.98 in 6.2 mi Calm Calm - N/A   Scattered Clouds
5:30 AM 55.4 °F 50.0 °F 82% 29.98 in 6.2 mi Calm Calm - N/A   Scattered Clouds
6:00 AM 53.6 °F 48.2 °F 82% 29.98 in 6.2 mi Variable 2.3 mph - N/A   Scattered Clouds
6:30 AM 53.6 °F 48.2 °F 82% 29.98 in 6.2 mi Calm Calm - N/A   Scattered Clouds
7:00 AM 51.8 °F 48.2 °F 88% 29.98 in 6.2 mi Variable 2.3 mph - N/A   Partly Cloudy
7:30 AM 51.8 °F 48.2 °F 88% 29.98 in 6.2 mi Variable 1.2 mph - N/A   Partly Cloudy
8:00 AM 51 °F 47 °F 83% 30.01 in 16 mi North 2.3 mph - -   Scattered Clouds
8:00 AM 50.0 °F 46.4 °F 87% 30.01 in 6.2 mi Variable 1.2 mph - N/A   Partly Cloudy
8:30 AM 50.0 °F 46.4 °F 87% 30.01 in 6.2 mi Variable 1.2 mph - N/A   Partly Cloudy
9:00 AM 51.8 °F 50.0 °F 94% 30.01 in 6.2 mi Calm Calm - N/A   Partly Cloudy
9:30 AM 53.6 °F 50.0 °F 88% 30.01 in 6.2 mi Calm Calm - N/A   Partly Cloudy
10:00 AM 55.4 °F 51.8 °F 88% 30.04 in 6.2 mi Calm Calm - N/A   Partly Cloudy
10:30 AM 59.0 °F 51.8 °F 77% 30.04 in 6.2 mi Variable 1.2 mph - N/A   Partly Cloudy
11:00 AM 59.0 °F 50.0 °F 72% 30.04 in 6.2 mi Variable 2.3 mph - N/A   Partly Cloudy
11:30 AM 60.8 °F 50.0 °F 68% 30.04 in 6.2 mi SW 4.6 mph - N/A   Partly Cloudy
12:00 PM 64.4 °F 50.0 °F 59% 30.04 in 6.2 mi SSW 4.6 mph - N/A   Partly Cloudy
12:30 PM 64.4 °F 46.4 °F 52% 30.04 in 6.2 mi Variable 2.3 mph - N/A   Partly Cloudy
1:00 PM 68.0 °F 48.2 °F 49% 30.04 in 6.2 mi Variable 1.2 mph - N/A   Partly Cloudy
1:30 PM 68.0 °F 46.4 °F 46% 30.04 in 6.2 mi Variable 2.3 mph - N/A   Partly Cloudy
2:00 PM 74 °F 45 °F 25% 30.03 in 19 mi NNE 4.6 mph - -   Partly Cloudy
2:00 PM 69.8 °F 42.8 °F 38% 30.04 in 6.2 mi Variable 3.5 mph - N/A   Scattered Clouds
2:30 PM 69.8 °F 46.4 °F 43% 30.01 in 6.2 mi Calm Calm - N/A   Scattered Clouds
3:00 PM 71.6 °F 42.8 °F 35% 30.01 in 6.2 mi Variable 1.2 mph - N/A   Scattered Clouds
3:30 PM 69.8 °F 48.2 °F 46% 30.01 in 6.2 mi SW 6.9 mph - N/A   Scattered Clouds
4:00 PM 73.4 °F 46.4 °F 38% 30.01 in 6.2 mi South 5.8 mph - N/A   Scattered Clouds
4:30 PM 73.4 °F 48.2 °F 41% 30.01 in 6.2 mi SSW 9.2 mph - N/A   Scattered Clouds
5:00 PM 71.6 °F 48.2 °F 43% 30.01 in 6.2 mi SW 10.4 mph - N/A   Scattered Clouds
5:30 PM 71.6 °F 46.4 °F 41% 30.01 in 6.2 mi SW 15.0 mph - N/A   Partly Cloudy
6:00 PM 71.6 °F 46.4 °F 41% 30.01 in 6.2 mi WSW 13.8 mph - N/A   Partly Cloudy
6:30 PM 71.6 °F 48.2 °F 43% 30.01 in 6.2 mi WSW 15.0 mph - N/A   Partly Cloudy
7:00 PM 69.8 °F 48.2 °F 46% 30.01 in 6.2 mi West 15.0 mph - N/A   Partly Cloudy
7:30 PM 69.8 °F 50.0 °F 49% 30.04 in 6.2 mi WSW 13.8 mph - N/A   Partly Cloudy
8:00 PM 69 °F 48 °F 35% 30.05 in 19 mi WSW 13.8 mph - -   Scattered Clouds
8:00 PM 68.0 °F 48.2 °F 49% 30.04 in 6.2 mi WSW 12.7 mph - N/A   Partly Cloudy
8:30 PM 66.2 °F 46.4 °F 49% 30.06 in 6.2 mi WSW 11.5 mph - N/A   Partly Cloudy
9:00 PM 66.2 °F 44.6 °F 46% 30.06 in 6.2 mi SW 9.2 mph - N/A   Partly Cloudy
9:30 PM 62.6 °F 48.2 °F 59% 30.09 in 6.2 mi SW 4.6 mph - N/A   Partly Cloudy
10:00 PM 60.8 °F 48.2 °F 63% 30.09 in 6.2 mi South 3.5 mph - N/A   Partly Cloudy
10:30 PM 59.0 °F 51.8 °F 77% 30.09 in 6.2 mi South 5.8 mph - N/A   Partly Cloudy
11:00 PM 59.0 °F 51.8 °F 77% 30.09 in 6.2 mi South 4.6 mph - N/A   Partly Cloudy